• In Hungary
  • List of Countries
  • For 7 days
  • Water Temperature
  • Satellite Maps
  • Weather Map
  • News
  • Weather Widgets
  • user-avatar
    Login

    Hourly Weather Staroe Tataurovo

    Today, 19 October, Thursday

    Time Temperature Precipitation Wind Pressure Humidity
    00:00 +2°C° 0 mm 1 mps 720 mmHg 87%
    01:00 +1°C° 0 mm 1 mps 720 mmHg 87%
    02:00 +1°C° 0 mm 1 mps 719 mmHg 88%
    03:00 +1°C° 0 mm 1 mps 719 mmHg 88%
    04:00 +1°C° 0 mm 1 mps 719 mmHg 89%
    05:00 +1°C° 0 mm 1 mps 719 mmHg 89%
    06:00 +1°C° 0 mm 1 mps 719 mmHg 89%
    07:00 +2°C° 0 mm 1 mps 719 mmHg 86%
    08:00 +4°C° 0 mm 1 mps 719 mmHg 78%
    09:00 +6°C° 0 mm 1 mps 719 mmHg 70%
    10:00 +8°C° 0 mm 1 mps 719 mmHg 62%
    11:00 +8°C° 0 mm 1 mps 719 mmHg 60%
    12:00 +8°C° 0 mm 2 mps 719 mmHg 59%
    13:00 +9°C° 0 mm 3 mps 718 mmHg 58%
    14:00 +8°C° 0 mm 3 mps 718 mmHg 62%
    15:00 +7°C° 0 mm 3 mps 719 mmHg 66%
    16:00 +5°C° 0 mm 3 mps 719 mmHg 70%
    17:00 +4°C° 0 mm 2 mps 719 mmHg 75%
    18:00 +2°C° 0 mm 2 mps 720 mmHg 81%
    19:00 +1°C° 0 mm 2 mps 720 mmHg 86%
    20:00 +1°C° 0 mm 2 mps 720 mmHg 87%
    21:00 +1°C° 0 mm 1 mps 721 mmHg 87%
    22:00 +1°C° 0 mm 1 mps 721 mmHg 88%
    23:00 +1°C° 0 mm 1 mps 721 mmHg 88%

    Tomorrow, 20 October, Friday

    Time Temperature Precipitation Wind Pressure Humidity
    00:00 +1°C° 0 mm 1 mps 722 mmHg 88%
    01:00 0°C° 0 mm 1 mps 722 mmHg 89%
    02:00 0°C° 0 mm 1 mps 722 mmHg 89%
    03:00 0°C° 0 mm 1 mps 722 mmHg 90%
    04:00 0°C° 0 mm 1 mps 722 mmHg 90%
    05:00 0°C° 0 mm 1 mps 723 mmHg 89%
    06:00 0°C° 0 mm 1 mps 723 mmHg 89%
    07:00 0°C° 0 mm 1 mps 723 mmHg 88%
    08:00 +2°C° 0 mm 1 mps 723 mmHg 76%
    09:00 +4°C° 0 mm 1 mps 723 mmHg 64%
    10:00 +6°C° 0 mm 1 mps 723 mmHg 52%
    11:00 +7°C° 0 mm 1 mps 723 mmHg 48%
    12:00 +7°C° 0 mm 1 mps 723 mmHg 43%
    13:00 +8°C° 0 mm 1 mps 722 mmHg 39%
    14:00 +7°C° 0 mm 1 mps 722 mmHg 43%
    15:00 +6°C° 0 mm 1 mps 722 mmHg 47%
    16:00 +5°C° 0 mm 1 mps 722 mmHg 51%
    17:00 +3°C° 0 mm 2 mps 722 mmHg 55%
    18:00 +1°C° 0 mm 2 mps 722 mmHg 59%
    19:00 -1°C° 0 mm 2 mps 722 mmHg 64%
    20:00 -1°C° 0 mm 2 mps 722 mmHg 63%
    21:00 -2°C° 0 mm 2 mps 722 mmHg 63%
    22:00 -2°C° 0 mm 2 mps 722 mmHg 63%
    23:00 -2°C° 0 mm 2 mps 722 mmHg 62%

    Day after tomorrow, 21 October, Saturday

    Time Temperature Precipitation Wind Pressure Humidity
    00:00 -2°C° 0 mm 2 mps 721 mmHg 61%
    01:00 -2°C° 0 mm 2 mps 721 mmHg 60%
    02:00 -3°C° 0 mm 2 mps 721 mmHg 59%
    03:00 -3°C° 0 mm 2 mps 721 mmHg 59%
    04:00 -3°C° 0 mm 2 mps 721 mmHg 58%
    05:00 -3°C° 0 mm 2 mps 721 mmHg 58%
    06:00 -3°C° 0 mm 2 mps 722 mmHg 58%
    07:00 -1°C° 0 mm 1 mps 722 mmHg 57%
    08:00 +1°C° 0 mm 1 mps 722 mmHg 52%
    09:00 +3°C° 0 mm 1 mps 723 mmHg 48%
    10:00 +6°C° 0 mm 1 mps 723 mmHg 43%
    11:00 +6°C° 0 mm 1 mps 723 mmHg 44%
    12:00 +7°C° 0 mm 1 mps 723 mmHg 45%
    13:00 +7°C° 0 mm 0 mps 723 mmHg 46%
    14:00 +6°C° 0 mm 0 mps 723 mmHg 52%
    15:00 +6°C° 0 mm 1 mps 723 mmHg 57%
    16:00 +5°C° 0 mm 1 mps 723 mmHg 63%
    17:00 +3°C° 0 mm 0 mps 723 mmHg 68%
    18:00 +2°C° 0 mm 0 mps 723 mmHg 73%
    19:00 +1°C° 0 mm 0 mps 723 mmHg 78%
    20:00 +2°C° 0 mm 1 mps 724 mmHg 79%
    21:00 +1°C° 0 mm 1 mps 724 mmHg 80%
    22:00 +1°C° 0 mm 1 mps 724 mmHg 80%
    23:00 +1°C° 0 mm 1 mps 724 mmHg 81%

    22 October, Sunday

    Time Temperature Precipitation Wind Pressure Humidity
    00:00 +1°C° 0 mm 1 mps 724 mmHg 81%
    01:00 -1°C° 0 mm 2 mps 724 mmHg 81%
    02:00 -1°C° 0 mm 2 mps 724 mmHg 82%
    03:00 -1°C° 0 mm 2 mps 723 mmHg 83%
    04:00 -2°C° 0 mm 2 mps 723 mmHg 84%
    05:00 -2°C° 0 mm 2 mps 723 mmHg 84%
    06:00 -1°C° 0 mm 2 mps 723 mmHg 85%
    07:00 -1°C° 0 mm 2 mps 724 mmHg 86%
    08:00 +2°C° 0 mm 2 mps 723 mmHg 80%
    09:00 +4°C° 0 mm 2 mps 723 mmHg 74%
    10:00 +5°C° 0 mm 3 mps 723 mmHg 68%
    11:00 +7°C° 0 mm 3 mps 722 mmHg 65%
    12:00 +8°C° 0 mm 3 mps 722 mmHg 61%
    13:00 +9°C° 0 mm 3 mps 721 mmHg 57%
    14:00 +8°C° 0 mm 2 mps 721 mmHg 61%
    15:00 +7°C° 0 mm 2 mps 721 mmHg 65%
    16:00 +7°C° 0 mm 2 mps 720 mmHg 69%
    17:00 +5°C° 0 mm 2 mps 720 mmHg 74%
    18:00 +4°C° 0 mm 2 mps 720 mmHg 78%
    19:00 +3°C° 0 mm 2 mps 720 mmHg 83%
    20:00 +3°C° 0 mm 2 mps 720 mmHg 83%
    21:00 +3°C° 0 mm 2 mps 720 mmHg 84%
    22:00 +2°C° 0 mm 2 mps 720 mmHg 85%
    23:00 +2°C° 0 mm 2 mps 720 mmHg 85%

    23 October, Monday

    Time Temperature Precipitation Wind Pressure Humidity
    00:00 +2°C° 0 mm 2 mps 720 mmHg 85%
    01:00 +2°C° 0 mm 2 mps 719 mmHg 86%
    02:00 +1°C° 0 mm 2 mps 719 mmHg 86%
    03:00 +1°C° 0 mm 2 mps 719 mmHg 86%
    04:00 +1°C° 0 mm 2 mps 719 mmHg 87%
    05:00 +1°C° 0 mm 2 mps 719 mmHg 86%
    06:00 +1°C° 0 mm 2 mps 719 mmHg 86%
    07:00 +1°C° 0 mm 2 mps 719 mmHg 85%
    08:00 +3°C° 0 mm 2 mps 719 mmHg 76%
    09:00 +5°C° 0 mm 2 mps 719 mmHg 66%
    10:00 +7°C° 0 mm 2 mps 719 mmHg 57%
    11:00 +9°C° 0 mm 1 mps 719 mmHg 54%
    12:00 +10°C° 0 mm 1 mps 719 mmHg 51%
    13:00 +12°C° 0 mm 1 mps 718 mmHg 48%
    14:00 +10°C° 0 mm 1 mps 718 mmHg 53%
    15:00 +9°C° 0 mm 1 mps 718 mmHg 58%
    16:00 +8°C° 0 mm 1 mps 718 mmHg 63%
    17:00 +7°C° 0 mm 1 mps 719 mmHg 67%
    18:00 +6°C° 0 mm 1 mps 719 mmHg 71%
    19:00 +5°C° 0 mm 1 mps 720 mmHg 75%
    20:00 +4°C° 0 mm 1 mps 720 mmHg 75%
    21:00 +4°C° 0 mm 1 mps 720 mmHg 75%
    22:00 +4°C° 0 mm 1 mps 721 mmHg 75%
    23:00 +4°C° 0 mm 1 mps 721 mmHg 74%

    24 October, Tuesday

    Time Temperature Precipitation Wind Pressure Humidity
    00:00 +4°C° 0 mm 1 mps 721 mmHg 74%
    01:00 +4°C° 0 mm 1 mps 721 mmHg 73%
    02:00 +4°C° 0 mm 1 mps 722 mmHg 74%
    03:00 +3°C° 0 mm 1 mps 722 mmHg 74%
    04:00 +3°C° 0 mm 1 mps 722 mmHg 74%
    05:00 +3°C° 0 mm 1 mps 722 mmHg 74%
    06:00 +3°C° 0 mm 1 mps 723 mmHg 74%
    07:00 +3°C° 0 mm 1 mps 723 mmHg 75%
    08:00 +5°C° 0 mm 1 mps 723 mmHg 67%
    09:00 +8°C° 0 mm 1 mps 723 mmHg 60%
    10:00 +10°C° 0 mm 1 mps 723 mmHg 52%
    11:00 +11°C° 0 mm 1 mps 722 mmHg 50%
    12:00 +12°C° 0 mm 1 mps 722 mmHg 49%
    13:00 +13°C° 0 mm 1 mps 721 mmHg 47%
    14:00 +12°C° 0 mm 1 mps 721 mmHg 52%
    15:00 +10°C° 0 mm 1 mps 721 mmHg 58%
    16:00 +9°C° 0 mm 1 mps 721 mmHg 63%
    17:00 +8°C° 0 mm 1 mps 721 mmHg 67%
    18:00 +7°C° 0 mm 1 mps 721 mmHg 71%
    19:00 +5°C° 0 mm 1 mps 721 mmHg 76%
    20:00 +5°C° 0 mm 1 mps 721 mmHg 76%
    21:00 +5°C° 0 mm 1 mps 721 mmHg 77%
    22:00 +4°C° 0 mm 1 mps 721 mmHg 78%
    23:00 +4°C° 0 mm 1 mps 721 mmHg 79%
    Show more